Location: Eaton
(41.3139°N, 82.0207°W)
Time: 13:16:30
(UTC+00:00)

Cosmos 2278 Rocket - Pass Details

Date: 17 June 2021
Orbit: 840 x 846 km, 71.0° (Epoch: 26 July)

Event Time Altitude Azimuth Distance (km) Brightness Sun altitude
Rises 03:12:43 0° 348° (NNW) 3,409 6.7 -18.0°
Reaches altitude 10° 03:16:03 10° 8° (N) 2,472 5.3 -18.3°
Maximum altitude 03:19:45 17° 49° (NE) 1,992 4.2 -18.7°
Enters shadow 03:23:24 10° 90° (E) 2,459 4.3 -19.1°
